Location: Gouy
(50.0008°N, 3.2556°E)
Time: 20:45:17
(UTC+00:00)

BREEZE-M DEB (TANK) - Pass Details

Date: 23 May 2024
Orbit: 290 x 16913 km, 49.4° (Epoch: 14 June)

Event Time Altitude Azimuth Distance (km) Brightness Sun altitude
Rises 00:03:14 0° 279° (W) 2,034 5.8 -19.2°
Enters shadow 00:03:24 - 279° (W) 1,951 5.7 -19.2°
Exits shadow 00:07:59 39° 152° (SSE) 939 3.5 -19.2°
Drops below altitude 10° 00:13:04 10° 121° (ESE) 3,322 6.5 -19.1°
Sets 00:18:39 0° 118° (ESE) 5,894 7.8 -18.9°
